TimeMDT,TemperatureF,Dew PointF,Humidity,Sea Level PressureIn,VisibilityMPH,Wind Direction,Wind SpeedMPH,Gust SpeedMPH,PrecipitationIn,Events,Conditions,WindDirDegrees,DateUTC
12:15 AM,42.8,8.6,25,30.07,10.0,West,4.6,-,N/A,,Scattered Clouds,260,2013-03-27 06:15:00
12:35 AM,42.8,8.6,25,30.07,10.0,West,5.8,-,N/A,,Mostly Cloudy,270,2013-03-27 06:35:00
12:55 AM,39.2,8.6,28,30.07,10.0,WNW,4.6,-,N/A,,Scattered Clouds,290,2013-03-27 06:55:00
1:15 AM,37.4,8.6,30,30.07,10.0,WNW,3.5,-,N/A,,Partly Cloudy,290,2013-03-27 07:15:00
1:35 AM,39.2,8.6,28,30.07,10.0,NW,3.5,-,N/A,,Clear,320,2013-03-27 07:35:00
1:55 AM,33.8,6.8,32,30.07,10.0,NNE,4.6,-,N/A,,Mostly Cloudy,20,2013-03-27 07:55:00
2:15 AM,37.4,10.4,33,30.07,10.0,North,4.6,-,N/A,,Mostly Cloudy,10,2013-03-27 08:15:00
2:35 AM,33.8,6.8,32,30.07,10.0,North,5.8,-,N/A,,Partly Cloudy,350,2013-03-27 08:35:00
2:55 AM,30.2,6.8,37,30.07,10.0,North,4.6,-,N/A,,Partly Cloudy,360,2013-03-27 08:55:00
3:15 AM,33.8,10.4,38,30.07,10.0,Calm,Calm,-,N/A,,Clear,0,2013-03-27 09:15:00
3:35 AM,32.0,8.6,38,30.07,10.0,Calm,Calm,-,N/A,,Clear,0,2013-03-27 09:35:00
3:55 AM,33.8,8.6,35,30.07,10.0,Calm,Calm,-,N/A,,Partly Cloudy,0,2013-03-27 09:55:00
4:15 AM,30.2,8.6,40,30.07,10.0,Calm,Calm,-,N/A,,Scattered Clouds,0,2013-03-27 10:15:00
4:35 AM,30.2,8.6,40,30.07,10.0,Calm,Calm,-,N/A,,Mostly Cloudy,0,2013-03-27 10:35:00
4:55 AM,28.4,8.6,43,30.08,10.0,Calm,Calm,-,N/A,,Mostly Cloudy,0,2013-03-27 10:55:00
5:15 AM,28.4,6.8,40,30.08,10.0,East,3.5,-,N/A,,Mostly Cloudy,80,2013-03-27 11:15:00
5:35 AM,28.4,6.8,40,30.08,10.0,Calm,Calm,-,N/A,,Mostly Cloudy,0,2013-03-27 11:35:00
5:55 AM,26.6,5.0,40,30.09,10.0,North,6.9,-,N/A,,Mostly Cloudy,360,2013-03-27 11:55:00
6:15 AM,28.4,8.6,43,30.10,10.0,North,4.6,-,N/A,,Overcast,360,2013-03-27 12:15:00
6:35 AM,28.4,10.4,47,30.10,10.0,North,5.8,-,N/A,,Overcast,10,2013-03-27 12:35:00
6:55 AM,28.4,10.4,47,30.11,10.0,North,4.6,-,N/A,,Overcast,360,2013-03-27 12:55:00
7:15 AM,30.2,10.4,44,30.11,10.0,North,3.5,-,N/A,,Overcast,10,2013-03-27 13:15:00
7:35 AM,30.2,10.4,44,30.12,10.0,North,4.6,-,N/A,,Overcast,10,2013-03-27 13:35:00
7:55 AM,30.2,10.4,44,30.13,10.0,North,4.6,-,N/A,,Mostly Cloudy,10,2013-03-27 13:55:00
8:15 AM,30.2,10.4,44,30.14,10.0,NNE,4.6,-,N/A,,Clear,20,2013-03-27 14:15:00
8:35 AM,35.6,12.2,38,30.14,10.0,North,4.6,-,N/A,,Clear,360,2013-03-27 14:35:00
8:55 AM,42.8,15.8,34,30.14,10.0,Calm,Calm,-,N/A,,Clear,0,2013-03-27 14:55:00
9:15 AM,44.6,15.8,31,30.15,10.0,Calm,Calm,-,N/A,,Clear,0,2013-03-27 15:15:00
9:35 AM,46.4,15.8,29,30.15,10.0,WSW,4.6,-,N/A,,Clear,250,2013-03-27 15:35:00
9:55 AM,50.0,17.6,28,30.15,10.0,SW,11.5,-,N/A,,Clear,230,2013-03-27 15:55:00
10:15 AM,51.8,17.6,26,30.15,10.0,SW,6.9,-,N/A,,Clear,230,2013-03-27 16:15:00
10:35 AM,53.6,17.6,24,30.15,10.0,West,6.9,-,N/A,,Clear,260,2013-03-27 16:35:00
10:55 AM,53.6,17.6,24,30.15,10.0,West,4.6,-,N/A,,Clear,260,2013-03-27 16:55:00
11:15 AM,55.4,17.6,23,30.15,10.0,Calm,Calm,-,N/A,,Clear,0,2013-03-27 17:15:00
11:35 AM,57.2,17.6,21,30.14,10.0,WSW,17.3,20.7,N/A,,Clear,250,2013-03-27 17:35:00
11:55 AM,55.4,15.8,21,30.13,10.0,WSW,9.2,-,N/A,,Clear,250,2013-03-27 17:55:00
12:15 PM,57.2,15.8,20,30.13,10.0,West,17.3,23.0,N/A,,Clear,280,2013-03-27 18:15:00
12:35 PM,59.0,15.8,19,30.13,10.0,WNW,8.1,17.3,N/A,,Clear,300,2013-03-27 18:35:00
12:55 PM,59.0,14.0,17,30.12,10.0,West,11.5,20.7,N/A,,Clear,280,2013-03-27 18:55:00
1:15 PM,60.8,15.8,17,30.11,10.0,West,11.5,25.3,N/A,,Clear,270,2013-03-27 19:15:00
1:35 PM,60.8,12.2,15,30.10,10.0,North,10.4,16.1,N/A,,Clear,350,2013-03-27 19:35:00
1:55 PM,62.6,14.0,15,30.09,10.0,West,17.3,21.9,N/A,,Partly Cloudy,260,2013-03-27 19:55:00
2:15 PM,62.6,14.0,15,30.08,10.0,West,8.1,18.4,N/A,,Clear,270,2013-03-27 20:15:00
2:35 PM,62.6,14.0,15,30.08,10.0,West,11.5,21.9,N/A,,Partly Cloudy,270,2013-03-27 20:35:00
2:55 PM,62.6,12.2,14,30.07,10.0,SSW,9.2,24.2,N/A,,Partly Cloudy,210,2013-03-27 20:55:00
3:15 PM,64.4,12.2,13,30.06,10.0,WSW,20.7,32.2,N/A,,Partly Cloudy,240,2013-03-27 21:15:00
3:35 PM,64.4,12.2,13,30.06,10.0,WSW,16.1,28.8,N/A,,Clear,240,2013-03-27 21:35:00
3:55 PM,62.6,10.4,13,30.06,10.0,WSW,18.4,28.8,N/A,,Clear,250,2013-03-27 21:55:00
4:15 PM,62.6,10.4,13,30.06,10.0,WSW,19.6,28.8,N/A,,Clear,240,2013-03-27 22:15:00
4:35 PM,64.4,10.4,12,30.05,10.0,West,19.6,27.6,N/A,,Clear,260,2013-03-27 22:35:00
4:55 PM,64.4,10.4,12,30.05,10.0,West,26.5,35.7,N/A,,Clear,260,2013-03-27 22:55:00
5:15 PM,62.6,8.6,12,30.06,10.0,West,15.0,19.6,N/A,,Clear,280,2013-03-27 23:15:00
5:35 PM,62.6,8.6,12,30.06,10.0,West,19.6,25.3,N/A,,Clear,270,2013-03-27 23:35:00
5:55 PM,60.8,6.8,12,30.07,10.0,WSW,17.3,-,N/A,,Clear,250,2013-03-27 23:55:00
6:15 PM,60.8,6.8,12,30.07,10.0,West,13.8,-,N/A,,Clear,270,2013-03-28 00:15:00
6:35 PM,59.0,5.0,12,30.07,10.0,WNW,13.8,17.3,N/A,,Clear,300,2013-03-28 00:35:00
6:55 PM,57.2,3.2,11,30.08,10.0,WNW,10.4,-,N/A,,Clear,290,2013-03-28 00:55:00
7:15 PM,55.4,3.2,12,30.08,10.0,NW,8.1,-,N/A,,Clear,310,2013-03-28 01:15:00
7:35 PM,53.6,3.2,13,30.09,10.0,WNW,10.4,-,N/A,,Clear,300,2013-03-28 01:35:00
7:55 PM,53.6,3.2,13,30.10,10.0,NW,8.1,-,N/A,,Clear,310,2013-03-28 01:55:00
8:15 PM,51.8,3.2,14,30.11,10.0,NW,4.6,-,N/A,,Clear,310,2013-03-28 02:15:00
8:35 PM,51.8,5.0,15,30.11,10.0,Calm,Calm,-,N/A,,Clear,0,2013-03-28 02:35:00
8:55 PM,46.4,3.2,17,30.12,10.0,Calm,Calm,-,N/A,,Clear,0,2013-03-28 02:55:00
9:15 PM,44.6,3.2,18,30.13,10.0,ESE,8.1,-,N/A,,Clear,120,2013-03-28 03:15:00
9:35 PM,44.6,5.0,20,30.14,10.0,ESE,5.8,-,N/A,,Clear,120,2013-03-28 03:35:00
9:55 PM,46.4,6.8,20,30.14,10.0,ESE,5.8,-,N/A,,Clear,110,2013-03-28 03:55:00
10:15 PM,46.4,5.0,18,30.15,10.0,East,4.6,-,N/A,,Clear,100,2013-03-28 04:15:00
10:35 PM,44.6,6.8,21,30.15,10.0,South,3.5,-,N/A,,Clear,180,2013-03-28 04:35:00
10:55 PM,46.4,8.6,22,30.15,10.0,SE,6.9,-,N/A,,Scattered Clouds,130,2013-03-28 04:55:00
11:15 PM,46.4,8.6,22,30.15,10.0,SE,6.9,-,N/A,,Mostly Cloudy,130,2013-03-28 05:15:00
11:35 PM,44.6,10.4,25,30.15,10.0,SE,4.6,-,N/A,,Mostly Cloudy,140,2013-03-28 05:35:00
11:55 PM,44.6,8.6,23,30.16,10.0,SSE,8.1,-,N/A,,Partly Cloudy,160,2013-03-28 05:55:00